Regional Weather Roundup
Issued by NWS Jackson, KY

Home | Current Version | Previous Version | Text Only | Print | Product List | Glossary On
Versions: 1 2 3 4 5 6 7 8 9 10 11 12 13 14 15 16 17 18 19 20 21 22 23 24 25 26 27 28 29 30 31 32 33 34 35 36 37 38 39 40 41 42 43 44 45 46 47 48 49 50
000
ASUS43 KJKL 210510
RWRJKL

EAST KENTUCKY HOURLY WEATHER ROUNDUP
NATIONAL WEATHER SERVICE JACKSON KY
1200 AM EST SUN JAN 21 2018

NOTE: "FAIR" INDICATES FEW OR NO CLOUDS BELOW 12,000 FEET WITH
NO SIGNIFICANT WEATHER AND/OR OBSTRUCTIONS TO VISIBILITY.

* THESE REPORTS ARE NOT UNDER NWS QUALITY CONTROL AND MAY NOT
  REPORT WEATHER SUCH AS PRECIPITATION AND FOG.

KYZ079-080-083-085-087-088-110-112-115-119-120-210600
...EASTERN KENTUCKY...

CITY           SKY/WX    TMP DP  RH WIND       PRES   REMARKS
JACKSON        MOCLDY    47  35  63 SW6       30.17F
LONDON         MOCLDY    43  34  70 CALM      30.19S
SOMERSET*      MOCLDY    39  32  75 S5        30.20S
MONTICELLO*      N/A     44  35  70 VRB3      30.20F
WILLIAMSBURG*  CLOUDY    48  34  57 SE7       30.20S
MIDDLESBORO*   MOCLDY    33  32  94 CALM      30.23F
HARLAN APT*      N/A     37  32  81 CALM      30.23S
PIKE CO APT*     N/A     47  36  67 S5        30.18S
BIG SANDY APT*   N/A     48  37  64 S3        30.18S
MOREHEAD APT*  MOCLDY    50  39  66 S8        30.16R
$$

KYZ035-036-041-042-044-050-067-078-099-210600
...CENTRAL KENTUCKY...

CITY           SKY/WX    TMP DP  RH WIND       PRES   REMARKS
MT STERLING*     N/A     46  37  71 SW7       30.16S
FLEMING/MASON* CLOUDY    44  43  95 S6        30.15S
DANVILLE*      CLOUDY    46  34  61 SW9       30.15F
LEXINGTON      CLOUDY    49  37  63 S8        30.13S
FRANKFORT      MOCLDY    48  37  65 S8        30.10F
LOUISVILLE     CLOUDY    54  38  54 S10       30.10R
LEBANON*         N/A     52  36  54 S10       30.13F
GLASGOW*       CLOUDY    49  36  58 S5        30.16R
BOWLING GREEN  CLOUDY    53  40  61 S7        30.15S
$$

KYZ091>093-OHZ055-061-077-WVZ005-015-034-035-042-210600
...SOUTHERN OHIO/WEST VIRGINIA...

CITY           SKY/WX    TMP DP  RH WIND       PRES   REMARKS
COVINGTON      CLOUDY    45  44  97 S5        30.09S
COLUMBUS       CLOUDY    42  33  70 S3        30.12S
DAYTON         DRIZZLE   39  39 100 S3        30.10F FOG
WILMINGTON     FOG       39  39 100 S5        30.10F VSB 3/4
HUNTINGTON     CLOUDY    50  41  71 S7        30.15F
CHARLESTON     CLOUDY    43  38  82 CALM      30.17S
BECKLEY        CLOUDY    44  36  73 SW5       30.18F
BLUEFIELD      MOCLDY    41  33  73 W6        30.19S
LOGAN CO APT*  CLOUDY    48  36  61 CALM      30.18S
$$

VAZ002-007-008-TNZ017-027-036-066-071-210600
...SOUTHWEST VIRGINIA/EAST TENNESSEE...

CITY           SKY/WX    TMP DP  RH WIND       PRES   REMARKS
WISE*            N/A     41  34  75 W10       30.22R
JONESVILLE*      N/A     32  32 100 CALM      30.26S
ABINGDON*        N/A     35  33  91 CALM      30.23S
BRISTOL          N/A     35  32  88 CALM      30.23S
MORRISTOWN*    PTCLDY    36  32  87 CALM      30.22F
SEVIERVILLE*   CLEAR     36  36 100 CALM      30.23F
KNOXVILLE      MOCLDY    39  36  89 CALM      30.23S
LAFOLLETTE*    CLOUDY    36  34  93 CALM      30.25F
OAK RIDGE      CLOUDY    39  34  82 CALM      30.24F
CROSSVILLE       N/A     44  32  62 CALM      30.21F
NASHVILLE      CLOUDY    57  37  47 S15       30.16S
$$

...KEY TO REMARKS...
VSB - VISIBILITY IN MILES
WCI - WIND CHILL INDEX
HX  - HEAT INDEX

$$



USA.gov is the U.S. government's official web portal to all federal, state and local government web resources and services.